QPF
0.02 0.02 0.01 0.02 0.02 0.01 0.01 0.00 0.00 0.00 0.01 0.01 0.01 0.01 0.01 0.01 0.01 0.01 0.01 0.01 0.01 0.01 0.01 0.01 0.01 0.01 0.01 0.01 0.01 0.01 0.01 0.02 0.02 0.03 0.04 0.05 0.06 0.04 0.03 0.04 0.04 0.05 0.04 0.02
0.02 0.01 0.01 0.01 0.02 0.02 0.01 0.00 0.00 0.00 0.01 0.01 0.01 0.01 0.01 0.01 0.01 0.01 0.01 0.02 0.01 0.01 0.01 0.01 0.01 0.01 0.00 0.00 0.00 0.00 0.01 0.02 0.02 0.02 0.03 0.04 0.05 0.04 0.03 0.03 0.04 0.04 0.04 0.03
0.01 0.01 0.01 0.01 0.02 0.03 0.04 0.01 0.01 0.01 0.01 0.01 0.01 0.00 0.00 0.01 0.01 0.02 0.02 0.02 0.02 0.02 0.02 0.01 0.01 0.01 0.01 0.01 0.01 0.01 0.01 0.01 0.02 0.03 0.03 0.03 0.04 0.04 0.03 0.02 0.02 0.02 0.02 0.02
0.00 0.00 0.01 0.01 0.01 0.02 0.04 0.04 0.02 0.01 0.01 0.00 0.00 0.01 0.00 0.00 0.01 0.01 0.02 0.02 0.02 0.02 0.02 0.02 0.01 0.01 0.01 0.01 0.01 0.01 0.01 0.02 0.03 0.03 0.03 0.03 0.04 0.04 0.04 0.03 0.02 0.02 0.01 0.01
0.00 0.00 0.01 0.01 0.00 0.01 0.02 0.03 0.03 0.02 0.01 0.00 0.00 0.01 0.00 0.00 0.00 0.00 0.01 0.01 0.01 0.02 0.02 0.02 0.02 0.01 0.01 0.01 0.01 0.01 0.01 0.02 0.04 0.04 0.04 0.04 0.03 0.03 0.03 0.03 0.02 0.02 0.01 0.01
0.00 0.00 0.01 0.00 0.00 0.00 0.01 0.01 0.01 0.02 0.02 0.01 0.01 0.01 0.01 0.00 0.00 0.00 0.00 0.00 0.00 0.01 0.01 0.01 0.01 0.01 0.01 0.01 0.01 0.01 0.01 0.01 0.04 0.07 0.05 0.04 0.04 0.03 0.03 0.03 0.03 0.02 0.02 0.02
0.00 0.01 0.00 0.00 0.00 0.00 0.00 0.01 0.00 0.01 0.01 0.02 0.02 0.01 0.01 0.00 0.00 0.00 0.00 0.00 0.00 0.00 0.00 0.01 0.01 0.01 0.01 0.01 0.01 0.01 0.01 0.01 0.02 0.06 0.07 0.04 0.04 0.03 0.03 0.04 0.04 0.03 0.03 0.02
0.00 0.00 0.00 0.00 0.00 0.00 0.00 0.00 0.00 0.00 0.00 0.01 0.01 0.01 0.00 0.00 0.00 0.00 0.00 0.00 0.00 0.00 0.01 0.01 0.01 0.01 0.01 0.01 0.01 0.01 0.01 0.01 0.01 0.03 0.07 0.05 0.03 0.02 0.02 0.03 0.04 0.04 0.04 0.03
0.01 0.00 0.00 0.00 0.00 0.00 0.00 0.00 0.00 0.00 0.00 0.00 0.00 0.00 0.00 0.00 0.00 0.00 0.00 0.00 0.00 0.00 0.01 0.01 0.01 0.01 0.02 0.02 0.01 0.01 0.01 0.01 0.01 0.01 0.04 0.05 0.04 0.02 0.01 0.02 0.02 0.03 0.04 0.04
0.00 0.00 0.00 0.00 0.00 0.00 0.00 0.00 0.00 0.00 0.00 0.00 0.00 0.00 0.00 0.00 0.00 0.00 0.00 0.00 0.00 0.00 0.00 0.00 0.00 0.01 0.01 0.01 0.01 0.01 0.01 0.01 0.01 0.01 0.03 0.04 0.04 0.03 0.02 0.01 0.01 0.02 0.03 0.03
0.00 0.00 0.00 0.00 0.01 0.00 0.00 0.00 0.00 0.00 0.00 0.00 0.00 0.00 0.00 0.00 0.00 0.00 0.00 0.00 0.00 0.00 0.00 0.00 0.00 0.01 0.01 0.01 0.01 0.01 0.01 0.01 0.01 0.02 0.02 0.03 0.03 0.03 0.03 0.02 0.01 0.01 0.02 0.02
0.00 0.00 0.00 0.00 0.00 0.00 0.00 0.00 0.00 0.00 0.00 0.00 0.00 0.00 0.00 0.00 0.00 0.00 0.00 0.00 0.00 0.00 0.00 0.00 0.00 0.01 0.01 0.00 0.01 0.01 0.01 0.01 0.01 0.02 0.02 0.02 0.02 0.02 0.03 0.03 0.02 0.01 0.01 0.01
0.00 0.00 0.00 0.00 0.00 0.00 0.00 0.00 0.00 0.00 0.00 0.00 0.00 0.00 0.00 0.00 0.00 0.00 0.00 0.00 0.00 0.00 0.00 0.00 0.00 0.01 0.01 0.00 0.01 0.01 0.01 0.01 0.01 0.02 0.03 0.02 0.02 0.02 0.02 0.02 0.02 0.01 0.01 0.01
0.00 0.00 0.00 0.00 0.00 0.00 0.00 0.00 0.00 0.00 0.00 0.00 0.00 0.00 0.00 0.00 0.00 0.00 0.00 0.00 0.00 0.00 0.00 0.00 0.00 0.00 0.00 0.01 0.01 0.01 0.01 0.01 0.02 0.03 0.03 0.02 0.01 0.01 0.01 0.01 0.01 0.01 0.01 0.01
0.00 0.00 0.00 0.00 0.00 0.00 0.00 0.00 0.00 0.00 0.00 0.00 0.00 0.00 0.00 0.00 0.00 0.00 0.00 0.00 0.00 0.00 0.00 0.00 0.00 0.00 0.00 0.01 0.01 0.01 0.01 0.01 0.02 0.02 0.02 0.02 0.01 0.01 0.01 0.01 0.01 0.01 0.01 0.01
0.00 0.00 0.00 0.00 0.00 0.00 0.00 0.00 0.00 0.00 0.00 0.00 0.01 0.01 0.01 0.01 0.01 0.00 0.00 0.00 0.00 0.00 0.00 0.00 0.00 0.00 0.00 0.00 0.00 0.01 0.02 0.02 0.02 0.03 0.02 0.01 0.01 0.01 0.01 0.02 0.02 0.01 0.01 0.01
0.00 0.00 0.00 0.00 0.00 0.00 0.00 0.00 0.00 0.00 0.01 0.01 0.01 0.01 0.00 0.00 0.00 0.01 0.00 0.00 0.00 0.00 0.00 0.00 0.00 0.00 0.00 0.00 0.00 0.01 0.01 0.02 0.03 0.03 0.03 0.02 0.02 0.02 0.02 0.01 0.02 0.02 0.01 0.01
0.00 0.00 0.00 0.00 0.00 0.00 0.01 0.01 0.01 0.00 0.01 0.01 0.01 0.00 0.00 0.00 0.00 0.00 0.00 0.00 0.00 0.00 0.00 0.00 0.00 0.00 0.00 0.00 0.00 0.00 0.01 0.01 0.02 0.03 0.04 0.04 0.03 0.02 0.02 0.02 0.02 0.02 0.02 0.02
0.00 0.00 0.00 0.00 0.00 0.00 0.01 0.01 0.01 0.00 0.00 0.01 0.01 0.01 0.00 0.00 0.00 0.01 0.01 0.01 0.01 0.01 0.01 0.00 0.00 0.00 0.00 0.00 0.00 0.00 0.01 0.01 0.02 0.02 0.03 0.04 0.04 0.04 0.03 0.03 0.03 0.02 0.02 0.02
0.00 0.00 0.00 0.00 0.00 0.00 0.00 0.00 0.01 0.01 0.01 0.01 0.01 0.01 0.00 0.00 0.00 0.01 0.01 0.01 0.01 0.01 0.01 0.00 0.00 0.00 0.00 0.01 0.01 0.01 0.01 0.01 0.02 0.02 0.02 0.03 0.04 0.04 0.04 0.04 0.03 0.03 0.03 0.03
0.00 0.00 0.00 0.00 0.00 0.00 0.00 0.00 0.00 0.00 0.00 0.00 0.00 0.00 0.00 0.00 0.01 0.01 0.01 0.01 0.00 0.01 0.01 0.01 0.01 0.01 0.01 0.01 0.01 0.01 0.01 0.02 0.02 0.03 0.04 0.04 0.04 0.04 0.04 0.04 0.04 0.04 0.04 0.04
0.00 0.00 0.00 0.00 0.00 0.00 0.00 0.00 0.00 0.00 0.00 0.00 0.00 0.01 0.00 0.00 0.01 0.01 0.01 0.01 0.01 0.01 0.01 0.01 0.01 0.01 0.01 0.01 0.01 0.01 0.01 0.02 0.02 0.03 0.04 0.05 0.05 0.05 0.05 0.04 0.04 0.04 0.04 0.04
0.00 0.00 0.00 0.00 0.00 0.00 0.00 0.00 0.00 0.00 0.00 0.00 0.00 0.01 0.01 0.01 0.01 0.01 0.01 0.01 0.01 0.01 0.01 0.01 0.01 0.01 0.01 0.01 0.01 0.01 0.01 0.01 0.02 0.02 0.03 0.03 0.04 0.05 0.05 0.05 0.04 0.03 0.04 0.03
0.01 0.01 0.01 0.01 0.01 0.01 0.01 0.00 0.00 0.00 0.00 0.00 0.00 0.01 0.01 0.01 0.01 0.01 0.01 0.01 0.01 0.01 0.01 0.01 0.01 0.01 0.01 0.01 0.01 0.01 0.01 0.01 0.01 0.02 0.02 0.02 0.03 0.04 0.04 0.04 0.04 0.04 0.04 0.03
0.02 0.02 0.02 0.02 0.02 0.02 0.01 0.01 0.01 0.01 0.01 0.01 0.01 0.01 0.01 0.01 0.01 0.01 0.01 0.01 0.01 0.01 0.01 0.01 0.01 0.01 0.01 0.01 0.01 0.01 0.01 0.01 0.01 0.02 0.02 0.02 0.03 0.03 0.04 0.04 0.04 0.04 0.03 0.03
0.02 0.02 0.02 0.02 0.02 0.02 0.01 0.01 0.01 0.01 0.01 0.01 0.00 0.00 0.00 0.00 0.00 0.01 0.01 0.01 0.01 0.01 0.01 0.01 0.01 0.01 0.01 0.01 0.01 0.01 0.01 0.01 0.02 0.02 0.02 0.02 0.02 0.03 0.04 0.04 0.03 0.03 0.03 0.03
0.01 0.01 0.01 0.02 0.02 0.01 0.01 0.01 0.01 0.01 0.01 0.01 0.01 0.00 0.00 0.00 0.01 0.01 0.01 0.01 0.00 0.00 0.01 0.01 0.01 0.01 0.01 0.01 0.01 0.01 0.01 0.01 0.01 0.01 0.01 0.01 0.02 0.02 0.02 0.02 0.02 0.03 0.03 0.03
MSLP
1014.79 1015.01 1015.22 1015.39 1015.51 1015.54 1015.47 1015.27 1014.93 1014.46 1013.88 1013.25 1012.59 1011.96 1011.41 1010.95 1010.60 1010.35 1010.19 1010.09 1010.03 1009.99 1009.96 1009.95 1009.97 1010.05 1010.22 1010.49 1010.89 1011.39 1012.00 1012.70 1013.44 1014.20 1014.96 1015.68 1016.37 1016.99 1017.57 1018.09 1018.57 1019.01 1019.40 1019.76
1015.22 1015.32 1015.32 1015.24 1015.06 1014.80 1014.46 1014.06 1013.62 1013.15 1012.69 1012.25 1011.85 1011.52 1011.24 1011.02 1010.84 1010.69 1010.55 1010.39 1010.23 1010.05 1009.87 1009.73 1009.65 1009.66 1009.79 1010.06 1010.47 1011.00 1011.65 1012.38 1013.16 1013.96 1014.75 1015.51 1016.23 1016.90 1017.52 1018.09 1018.61 1019.08 1019.51 1019.89
1015.58 1015.55 1015.38 1015.07 1014.65 1014.14 1013.60 1013.05 1012.53 1012.08 1011.72 1011.46 1011.29 1011.21 1011.17 1011.15 1011.12 1011.05 1010.91 1010.70 1010.43 1010.13 1009.83 1009.57 1009.39 1009.33 1009.43 1009.68 1010.10 1010.65 1011.33 1012.08 1012.89 1013.72 1014.54 1015.33 1016.08 1016.79 1017.46 1018.07 1018.64 1019.15 1019.61 1020.01
1015.77 1015.63 1015.31 1014.83 1014.23 1013.56 1012.88 1012.24 1011.69 1011.28 1011.01 1010.90 1010.92 1011.03 1011.18 1011.32 1011.40 1011.38 1011.24 1010.99 1010.64 1010.24 1009.84 1009.48 1009.23 1009.12 1009.17 1009.41 1009.82 1010.39 1011.07 1011.84 1012.65 1013.49 1014.33 1015.14 1015.93 1016.67 1017.38 1018.04 1018.64 1019.20 1019.69 1020.11
1015.72 1015.48 1015.05 1014.47 1013.77 1013.01 1012.26 1011.59 1011.06 1010.70 1010.53 1010.55 1010.71 1010.96 1011.25 1011.49 1011.65 1011.66 1011.53 1011.25 1010.85 1010.39 1009.92 1009.50 1009.20 1009.05 1009.08 1009.30 1009.70 1010.25 1010.93 1011.69 1012.50 1013.34 1014.17 1015.00 1015.80 1016.57 1017.31 1018.00 1018.65 1019.23 1019.75 1020.20
1015.39 1015.07 1014.58 1013.95 1013.22 1012.45 1011.71 1011.07 1010.60 1010.31 1010.24 1010.35 1010.62 1010.97 1011.34 1011.65 1011.85 1011.90 1011.77 1011.48 1011.06 1010.58 1010.08 1009.65 1009.32 1009.16 1009.17 1009.38 1009.76 1010.30 1010.95 1011.69 1012.48 1013.29 1014.12 1014.94 1015.75 1016.53 1017.28 1017.99 1018.66 1019.26 1019.80 1020.25
1014.82 1014.44 1013.92 1013.29 1012.59 1011.87 1011.20 1010.65 1010.26 1010.07 1010.08 1010.28 1010.61 1011.02 1011.44 1011.79 1012.01 1012.07 1011.96 1011.68 1011.28 1010.81 1010.33 1009.91 1009.60 1009.45 1009.47 1009.67 1010.04 1010.55 1011.17 1011.88 1012.63 1013.42 1014.22 1015.02 1015.81 1016.58 1017.33 1018.04 1018.70 1019.31 1019.84 1020.29
1014.07 1013.65 1013.13 1012.54 1011.91 1011.30 1010.75 1010.31 1010.04 1009.94 1010.04 1010.29 1010.67 1011.11 1011.54 1011.90 1012.13 1012.21 1012.12 1011.87 1011.51 1011.09 1010.66 1010.29 1010.02 1009.90 1009.94 1010.15 1010.51 1011.01 1011.60 1012.27 1012.99 1013.73 1014.49 1015.25 1016.01 1016.75 1017.46 1018.15 1018.79 1019.37 1019.88 1020.31
1013.25 1012.81 1012.31 1011.79 1011.27 1010.78 1010.37 1010.07 1009.92 1009.92 1010.09 1010.39 1010.79 1011.23 1011.65 1012.00 1012.23 1012.32 1012.26 1012.06 1011.75 1011.40 1011.05 1010.75 1010.55 1010.48 1010.55 1010.78 1011.15 1011.63 1012.20 1012.84 1013.52 1014.22 1014.93 1015.64 1016.34 1017.03 1017.70 1018.33 1018.92 1019.45 1019.92 1020.31
1012.47 1012.02 1011.56 1011.12 1010.72 1010.37 1010.10 1009.94 1009.90 1010.00 1010.23 1010.56 1010.96 1011.39 1011.79 1012.12 1012.34 1012.43 1012.40 1012.24 1012.01 1011.73 1011.46 1011.25 1011.12 1011.12 1011.24 1011.50 1011.88 1012.36 1012.91 1013.53 1014.17 1014.83 1015.50 1016.15 1016.80 1017.42 1018.01 1018.57 1019.09 1019.56 1019.97 1020.31
1011.80 1011.36 1010.95 1010.60 1010.31 1010.09 1009.96 1009.92 1010.00 1010.18 1010.45 1010.80 1011.20 1011.60 1011.97 1012.27 1012.47 1012.57 1012.56 1012.45 1012.28 1012.07 1011.89 1011.75 1011.70 1011.76 1011.93 1012.23 1012.63 1013.11 1013.67 1014.26 1014.88 1015.51 1016.13 1016.73 1017.31 1017.86 1018.37 1018.85 1019.29 1019.68 1020.02 1020.32
1011.27 1010.85 1010.50 1010.23 1010.05 1009.95 1009.94 1010.02 1010.18 1010.42 1010.74 1011.10 1011.48 1011.86 1012.19 1012.46 1012.65 1012.75 1012.75 1012.68 1012.56 1012.43 1012.31 1012.24 1012.26 1012.37 1012.58 1012.91 1013.33 1013.83 1014.38 1014.97 1015.57 1016.17 1016.75 1017.31 1017.82 1018.30 1018.74 1019.14 1019.49 1019.81 1020.09 1020.33
1010.85 1010.46 1010.18 1009.99 1009.90 1009.91 1010.00 1010.17 1010.41 1010.71 1011.05 1011.42 1011.80 1012.15 1012.46 1012.71 1012.89 1012.98 1013.00 1012.96 1012.88 1012.79 1012.73 1012.71 1012.77 1012.92 1013.17 1013.51 1013.95 1014.45 1015.01 1015.59 1016.18 1016.76 1017.31 1017.82 1018.29 1018.71 1019.08 1019.40 1019.69 1019.94 1020.16 1020.37
1010.47 1010.13 1009.91 1009.80 1009.80 1009.90 1010.08 1010.33 1010.64 1010.99 1011.37 1011.75 1012.13 1012.48 1012.78 1013.02 1013.19 1013.29 1013.32 1013.30 1013.25 1013.19 1013.16 1013.17 1013.25 1013.42 1013.68 1014.03 1014.47 1014.97 1015.53 1016.10 1016.68 1017.24 1017.77 1018.25 1018.68 1019.05 1019.36 1019.63 1019.86 1020.06 1020.25 1020.42
1010.06 1009.78 1009.63 1009.60 1009.68 1009.86 1010.12 1010.45 1010.82 1011.22 1011.64 1012.05 1012.45 1012.81 1013.12 1013.36 1013.54 1013.65 1013.71 1013.71 1013.68 1013.64 1013.62 1013.65 1013.73 1013.90 1014.15 1014.50 1014.92 1015.41 1015.95 1016.51 1017.07 1017.62 1018.12 1018.58 1018.97 1019.31 1019.59 1019.82 1020.01 1020.18 1020.33 1020.49
1009.57 1009.36 1009.28 1009.32 1009.48 1009.74 1010.08 1010.48 1010.92 1011.38 1011.85 1012.31 1012.74 1013.13 1013.47 1013.74 1013.95 1014.08 1014.16 1014.18 1014.17 1014.15 1014.14 1014.16 1014.24 1014.39 1014.62 1014.94 1015.33 1015.80 1016.30 1016.84 1017.38 1017.90 1018.38 1018.81 1019.18 1019.50 1019.75 1019.95 1020.12 1020.27 1020.41 1020.56
1009.01 1008.86 1008.85 1008.97 1009.21 1009.54 1009.95 1010.43 1010.93 1011.46 1011.99 1012.51 1012.99 1013.43 1013.82 1014.13 1014.38 1014.55 1014.66 1014.71 1014.72 1014.71 1014.71 1014.72 1014.78 1014.91 1015.11 1015.39 1015.75 1016.17 1016.64 1017.13 1017.64 1018.13 1018.58 1018.98 1019.33 1019.62 1019.86 1020.04 1020.20 1020.34 1020.46 1020.60
1008.41 1008.33 1008.38 1008.57 1008.87 1009.28 1009.76 1010.31 1010.89 1011.48 1012.08 1012.66 1013.21 1013.71 1014.15 1014.52 1014.82 1015.04 1015.19 1015.27 1015.31 1015.31 1015.31 1015.32 1015.37 1015.47 1015.63 1015.87 1016.18 1016.55 1016.97 1017.42 1017.88 1018.33 1018.74 1019.12 1019.44 1019.70 1019.92 1020.09 1020.23 1020.36 1020.47 1020.59
1007.87 1007.83 1007.94 1008.18 1008.54 1009.01 1009.56 1010.17 1010.81 1011.48 1012.15 1012.80 1013.41 1013.97 1014.47 1014.90 1015.25 1015.51 1015.70 1015.82 1015.89 1015.91 1015.92 1015.93 1015.96 1016.04 1016.18 1016.37 1016.64 1016.96 1017.32 1017.72 1018.12 1018.52 1018.89 1019.22 1019.51 1019.75 1019.94 1020.09 1020.22 1020.32 1020.42 1020.52
1007.46 1007.46 1007.60 1007.88 1008.29 1008.80 1009.40 1010.06 1010.77 1011.49 1012.22 1012.93 1013.60 1014.22 1014.77 1015.25 1015.65 1015.96 1016.19 1016.34 1016.43 1016.47 1016.49 1016.51 1016.54 1016.60 1016.72 1016.88 1017.10 1017.38 1017.69 1018.03 1018.38 1018.72 1019.04 1019.32 1019.57 1019.77 1019.93 1020.05 1020.15 1020.24 1020.31 1020.39
1007.26 1007.27 1007.42 1007.72 1008.16 1008.70 1009.34 1010.04 1010.79 1011.56 1012.34 1013.09 1013.81 1014.47 1015.07 1015.58 1016.01 1016.36 1016.61 1016.79 1016.91 1016.97 1017.01 1017.03 1017.07 1017.13 1017.22 1017.36 1017.55 1017.79 1018.05 1018.34 1018.63 1018.92 1019.19 1019.42 1019.62 1019.78 1019.90 1020.00 1020.07 1020.12 1020.17 1020.21
1007.27 1007.27 1007.43 1007.73 1008.18 1008.74 1009.40 1010.13 1010.91 1011.71 1012.52 1013.30 1014.05 1014.74 1015.36 1015.90 1016.35 1016.71 1016.98 1017.18 1017.31 1017.40 1017.45 1017.48 1017.52 1017.58 1017.68 1017.80 1017.97 1018.17 1018.40 1018.65 1018.89 1019.13 1019.35 1019.53 1019.69 1019.80 1019.89 1019.95 1019.98 1020.00 1020.02 1020.03
1007.46 1007.45 1007.60 1007.90 1008.34 1008.91 1009.57 1010.32 1011.11 1011.94 1012.77 1013.57 1014.33 1015.04 1015.66 1016.21 1016.66 1017.03 1017.31 1017.52 1017.66 1017.75 1017.81 1017.86 1017.91 1017.98 1018.07 1018.20 1018.35 1018.54 1018.74 1018.95 1019.16 1019.36 1019.53 1019.68 1019.79 1019.87 1019.92 1019.94 1019.94 1019.93 1019.91 1019.89
1007.77 1007.74 1007.88 1008.17 1008.61 1009.17 1009.84 1010.60 1011.40 1012.24 1013.08 1013.89 1014.65 1015.36 1015.98 1016.52 1016.98 1017.34 1017.62 1017.82 1017.96 1018.06 1018.13 1018.19 1018.25 1018.33 1018.43 1018.56 1018.71 1018.89 1019.07 1019.27 1019.45 1019.62 1019.76 1019.87 1019.95 1020.00 1020.02 1020.01 1019.98 1019.94 1019.89 1019.84
1008.11 1008.08 1008.21 1008.50 1008.93 1009.50 1010.17 1010.93 1011.75 1012.59 1013.43 1014.24 1015.01 1015.71 1016.32 1016.85 1017.29 1017.64 1017.91 1018.11 1018.25 1018.36 1018.43 1018.50 1018.58 1018.67 1018.78 1018.92 1019.07 1019.25 1019.43 1019.61 1019.78 1019.93 1020.05 1020.14 1020.19 1020.22 1020.21 1020.18 1020.13 1020.07 1020.00 1019.91
1008.41 1008.39 1008.53 1008.82 1009.27 1009.84 1010.53 1011.29 1012.11 1012.96 1013.80 1014.61 1015.37 1016.07 1016.67 1017.19 1017.62 1017.96 1018.22 1018.41 1018.56 1018.66 1018.75 1018.83 1018.92 1019.03 1019.15 1019.30 1019.47 1019.64 1019.82 1020.00 1020.16 1020.30 1020.41 1020.48 1020.53 1020.54 1020.52 1020.47 1020.40 1020.32 1020.22 1020.11
1008.62 1008.64 1008.80 1009.12 1009.59 1010.18 1010.87 1011.65 1012.47 1013.32 1014.17 1014.98 1015.73 1016.42 1017.02 1017.53 1017.94 1018.28 1018.54 1018.73 1018.88 1018.99 1019.09 1019.19 1019.30 1019.42 1019.56 1019.72 1019.90 1020.09 1020.27 1020.45 1020.60 1020.74 1020.84 1020.90 1020.93 1020.93 1020.90 1020.84 1020.76 1020.65 1020.54 1020.40
Thickness
5650 5654 5655 5655 5657 5657 5652 5646 5638 5642 5644 5651 5654 5656 5656 5656 5654 5653 5651 5650 5649 5647 5647 5647 5646 5644 5644 5643 5642 5641 5639 5637 5635 5635 5634 5632 5631 5629 5628 5627 5626 5624 5622 5621
5644 5651 5651 5649 5653 5653 5652 5650 5646 5645 5645 5656 5655 5652 5650 5649 5648 5645 5644 5644 5643 5642 5640 5639 5639 5638 5636 5635 5634 5633 5631 5629 5628 5627 5626 5624 5623 5621 5619 5618 5616 5615 5614 5612
5627 5639 5641 5635 5648 5649 5648 5650 5647 5640 5646 5650 5646 5645 5644 5643 5642 5640 5638 5637 5636 5635 5633 5632 5632 5631 5629 5628 5627 5625 5623 5622 5621 5619 5618 5616 5615 5612 5610 5609 5607 5606 5605 5604
5619 5626 5618 5638 5654 5653 5647 5646 5646 5646 5646 5647 5645 5642 5641 5639 5635 5634 5632 5630 5628 5627 5626 5625 5624 5624 5622 5620 5618 5616 5614 5613 5612 5610 5609 5607 5605 5603 5601 5600 5598 5596 5595 5594
5609 5609 5616 5636 5648 5648 5641 5636 5641 5639 5639 5638 5637 5632 5629 5632 5630 5628 5625 5624 5622 5620 5618 5617 5616 5615 5612 5610 5608 5606 5604 5603 5602 5601 5599 5597 5595 5594 5593 5591 5589 5588 5587 5585
5603 5603 5604 5626 5645 5650 5640 5624 5634 5633 5630 5628 5627 5613 5615 5624 5623 5621 5619 5617 5614 5612 5610 5608 5607 5605 5602 5600 5598 5596 5595 5594 5593 5592 5590 5588 5587 5586 5584 5582 5581 5580 5578 5576
5599 5597 5607 5629 5639 5639 5615 5615 5629 5628 5625 5622 5617 5614 5615 5616 5615 5613 5611 5609 5606 5604 5601 5599 5597 5596 5592 5590 5588 5588 5587 5585 5583 5582 5580 5579 5578 5577 5575 5573 5571 5569 5568 5566
5593 5590 5601 5628 5629 5619 5616 5623 5623 5621 5619 5616 5612 5611 5609 5607 5604 5602 5600 5599 5596 5593 5590 5589 5587 5586 5583 5581 5581 5579 5577 5575 5573 5572 5570 5570 5568 5566 5565 5562 5560 5558 5557 5556
5600 5603 5614 5621 5621 5622 5619 5615 5614 5612 5611 5609 5604 5601 5599 5597 5595 5592 5590 5588 5586 5583 5580 5578 5577 5575 5572 5572 5571 5569 5567 5565 5563 5561 5559 5558 5556 5555 5553 5551 5549 5548 5546 5545
5598 5603 5608 5611 5613 5614 5613 5610 5608 5606 5604 5601 5596 5593 5590 5587 5584 5582 5580 5578 5575 5572 5569 5567 5566 5565 5564 5562 5561 5559 5556 5554 5552 5550 5548 5546 5544 5543 5541 5540 5538 5538 5536 5535
5589 5594 5597 5601 5602 5603 5604 5603 5601 5598 5596 5593 5589 5585 5582 5578 5576 5573 5571 5569 5566 5563 5561 5559 5557 5555 5554 5552 5550 5547 5545 5543 5540 5538 5535 5533 5532 5530 5529 5529 5528 5526 5525 5524
5583 5589 5586 5589 5595 5596 5594 5593 5592 5589 5587 5585 5582 5578 5574 5570 5567 5564 5562 5559 5556 5554 5552 5550 5548 5545 5543 5542 5540 5537 5534 5531 5529 5526 5524 5522 5520 5519 5519 5518 5518 5517 5516 5514
5587 5589 5586 5588 5589 5588 5586 5586 5585 5582 5579 5575 5573 5570 5566 5561 5558 5555 5552 5550 5547 5545 5542 5540 5538 5536 5534 5532 5530 5526 5523 5520 5517 5515 5513 5510 5509 5508 5507 5508 5508 5507 5506 5505
5581 5580 5578 5580 5579 5579 5578 5578 5576 5573 5570 5567 5563 5559 5556 5552 5549 5545 5542 5540 5538 5535 5532 5530 5528 5526 5524 5522 5519 5516 5513 5510 5507 5504 5502 5499 5498 5496 5496 5496 5497 5496 5496 5495
5573 5573 5571 5572 5571 5570 5569 5566 5563 5560 5558 5555 5553 5549 5546 5542 5539 5536 5533 5531 5528 5525 5523 5520 5518 5516 5514 5512 5509 5506 5503 5500 5497 5494 5492 5490 5488 5487 5486 5485 5485 5485 5485 5484
5564 5564 5562 5561 5560 5558 5557 5555 5552 5550 5548 5545 5542 5539 5537 5533 5530 5526 5523 5521 5517 5514 5513 5511 5508 5507 5505 5502 5499 5496 5493 5491 5488 5485 5482 5480 5479 5477 5476 5476 5475 5475 5474 5473
5553 5552 5551 5550 5550 5548 5547 5546 5544 5541 5538 5536 5533 5530 5527 5523 5519 5515 5513 5510 5508 5505 5503 5501 5499 5497 5495 5492 5489 5486 5483 5481 5479 5476 5473 5471 5469 5467 5467 5467 5466 5465 5464 5464
5551 5549 5546 5544 5543 5540 5539 5537 5534 5532 5529 5527 5524 5520 5516 5512 5509 5506 5504 5501 5498 5496 5493 5492 5490 5487 5485 5482 5480 5477 5473 5470 5468 5465 5463 5462 5460 5458 5458 5457 5457 5456 5455 5454
5544 5542 5540 5538 5536 5533 5530 5528 5525 5522 5520 5517 5514 5510 5506 5503 5499 5496 5494 5490 5488 5485 5484 5482 5481 5477 5475 5473 5471 5468 5465 5462 5459 5456 5454 5454 5452 5450 5449 5448 5448 5447 5447 5446
5535 5534 5532 5530 5528 5525 5522 5519 5516 5512 5510 5507 5503 5499 5495 5492 5490 5487 5484 5480 5478 5476 5476 5474 5471 5468 5466 5464 5462 5459 5456 5453 5451 5448 5446 5444 5443 5442 5441 5440 5440 5439 5439 5438
5525 5524 5523 5520 5518 5516 5513 5509 5506 5502 5499 5497 5493 5489 5485 5482 5479 5476 5473 5470 5470 5468 5467 5465 5462 5459 5457 5456 5454 5450 5447 5445 5442 5440 5438 5436 5435 5434 5433 5432 5432 5431 5430 5430
5514 5513 5511 5509 5506 5503 5501 5498 5495 5492 5488 5485 5482 5479 5475 5471 5469 5466 5464 5461 5461 5460 5457 5455 5453 5451 5449 5448 5445 5442 5439 5437 5435 5432 5430 5429 5428 5426 5425 5425 5424 5423 5423 5422
5502 5501 5499 5497 5494 5491 5488 5486 5484 5481 5478 5475 5472 5468 5465 5462 5459 5457 5454 5453 5452 5451 5449 5446 5445 5444 5443 5439 5436 5433 5431 5429 5427 5425 5423 5421 5420 5419 5417 5417 5416 5415 5415 5414
5491 5489 5487 5485 5482 5479 5476 5474 5472 5470 5467 5464 5462 5459 5456 5453 5450 5448 5447 5446 5444 5442 5440 5438 5437 5436 5434 5430 5427 5424 5422 5420 5419 5417 5415 5414 5412 5411 5410 5409 5408 5408 5408 5407
5480 5477 5475 5473 5470 5468 5466 5463 5461 5458 5455 5453 5451 5449 5446 5444 5441 5439 5438 5436 5435 5433 5431 5430 5429 5427 5424 5421 5418 5416 5414 5412 5411 5409 5408 5406 5405 5404 5402 5402 5401 5401 5401 5401
5470 5468 5466 5464 5461 5457 5455 5452 5449 5446 5444 5441 5439 5438 5436 5434 5433 5430 5429 5427 5426 5424 5422 5420 5418 5417 5414 5412 5410 5408 5406 5404 5403 5401 5399 5398 5397 5396 5395 5395 5395 5394 5394 5395
5460 5458 5455 5452 5449 5447 5445 5443 5440 5437 5434 5432 5429 5428 5426 5425 5423 5421 5419 5417 5416 5414 5412 5411 5409 5407 5405 5403 5401 5400 5398 5396 5395 5393 5392 5390 5390 5389 5388 5388 5388 5388 5388 5388